Time,TemperatureF,DewpointF,PressureIn,WindDirection,WindDirectionDegrees,WindSpeedMPH,WindSpeedGustMPH,Humidity,HourlyPrecipIn,Conditions,Clouds,dailyrainin,SolarRadiationWatts/m^2,SoftwareType,DateUTC
2013-01-31 00:00:00,36.2,29.0,30.12,SW,226,0.0,0.0,75,0.00,,---,0.00,0.00,VWS V14.00,2013-01-31 06:00:00,
2013-01-31 00:03:00,36.2,28.7,30.12,SW,226,0.0,0.0,74,0.00,,---,0.00,0.00,VWS V14.00,2013-01-31 06:03:00,
2013-01-31 00:07:00,36.1,28.6,30.12,SW,226,0.0,0.0,74,0.00,,---,0.00,0.00,VWS V14.00,2013-01-31 06:07:00,
2013-01-31 00:11:00,36.2,28.1,30.12,SW,226,0.0,0.0,72,0.00,,---,0.00,0.00,VWS V14.00,2013-01-31 06:11:00,
2013-01-31 00:15:00,36.5,28.0,30.12,SW,226,0.0,0.0,71,0.00,,---,0.00,0.00,VWS V14.00,2013-01-31 06:15:00,
2013-01-31 00:19:00,36.5,28.4,30.12,SW,226,0.0,0.0,72,0.00,,---,0.00,0.00,VWS V14.00,2013-01-31 06:19:00,
2013-01-31 00:23:00,36.5,28.0,30.12,SW,226,0.0,0.0,71,0.00,,---,0.00,0.00,VWS V14.00,2013-01-31 06:23:00,
2013-01-31 00:27:00,36.7,27.9,30.12,SW,226,0.0,0.0,70,0.00,,---,0.00,0.00,VWS V14.00,2013-01-31 06:27:00,
2013-01-31 00:30:00,36.9,28.0,30.12,SW,226,0.0,0.0,70,0.00,,---,0.00,0.00,VWS V14.00,2013-01-31 06:30:00,
2013-01-31 00:31:00,37.0,28.1,30.12,SW,226,0.0,0.0,70,0.00,,---,0.00,0.00,VWS V14.00,2013-01-31 06:31:00,
2013-01-31 00:35:00,36.8,29.0,30.12,SW,226,0.0,0.0,73,0.00,,---,0.00,0.00,VWS V14.00,2013-01-31 06:35:00,
2013-01-31 00:39:00,36.5,29.7,30.12,SW,227,0.0,0.0,76,0.00,,---,0.00,0.00,VWS V14.00,2013-01-31 06:39:00,
2013-01-31 00:43:00,36.3,30.1,30.12,SW,227,0.0,0.0,78,0.00,,---,0.00,0.00,VWS V14.00,2013-01-31 06:43:00,
2013-01-31 00:47:00,35.8,29.3,30.12,South,182,0.0,1.0,77,0.00,,---,0.00,0.00,VWS V14.00,2013-01-31 06:47:00,
2013-01-31 00:51:00,35.6,28.8,30.12,SW,221,1.0,1.0,76,0.00,,---,0.00,0.00,VWS V14.00,2013-01-31 06:51:00,
2013-01-31 00:55:00,36.4,29.2,30.12,SW,222,0.0,3.0,75,0.00,,---,0.00,0.00,VWS V14.00,2013-01-31 06:55:00,
2013-01-31 00:59:00,36.6,29.4,30.13,SW,222,0.0,3.0,75,0.00,,---,0.00,0.00,VWS V14.00,2013-01-31 06:59:00,
2013-01-31 01:00:00,36.6,29.4,30.13,SW,222,1.0,3.0,75,0.00,,---,0.00,0.00,VWS V14.00,2013-01-31 07:00:00,
2013-01-31 01:03:00,36.8,28.3,30.13,SW,224,4.0,4.0,71,0.00,,---,0.00,0.00,VWS V14.00,2013-01-31 07:03:00,
2013-01-31 01:07:00,37.4,28.5,30.13,SW,226,3.0,4.0,70,0.00,,---,0.00,0.00,VWS V14.00,2013-01-31 07:07:00,
2013-01-31 01:12:00,37.5,28.3,30.13,SW,226,0.0,4.0,69,0.00,,---,0.00,0.00,VWS V14.00,2013-01-31 07:12:00,
2013-01-31 01:16:00,37.4,28.2,30.13,SW,226,0.0,4.0,69,0.00,,---,0.00,0.00,VWS V14.00,2013-01-31 07:16:00,
2013-01-31 01:20:00,37.3,28.4,30.13,SW,226,0.0,4.0,70,0.00,,---,0.00,0.00,VWS V14.00,2013-01-31 07:20:00,
2013-01-31 01:24:00,37.1,29.9,30.13,SW,226,0.0,4.0,75,0.00,,---,0.00,0.00,VWS V14.00,2013-01-31 07:24:00,
2013-01-31 01:28:00,37.3,31.4,30.13,SW,226,1.0,4.0,79,0.00,,---,0.00,0.00,VWS V14.00,2013-01-31 07:28:00,
2013-01-31 01:30:00,37.3,31.1,30.12,SW,226,2.0,4.0,78,0.00,,---,0.00,0.00,VWS V14.00,2013-01-31 07:30:00,
2013-01-31 01:32:00,37.3,31.4,30.12,SW,226,1.0,2.0,79,0.00,,---,0.00,0.00,VWS V14.00,2013-01-31 07:32:00,
2013-01-31 01:36:00,37.1,31.5,30.12,SW,226,0.0,2.0,80,0.00,,---,0.00,0.00,VWS V14.00,2013-01-31 07:36:00,
2013-01-31 01:40:00,36.9,29.7,30.12,SW,226,1.0,2.0,75,0.00,,---,0.00,0.00,VWS V14.00,2013-01-31 07:40:00,
2013-01-31 01:44:00,36.7,28.5,30.12,SW,226,1.0,2.0,72,0.00,,---,0.00,0.00,VWS V14.00,2013-01-31 07:44:00,
2013-01-31 01:48:00,37.2,29.4,30.12,SW,226,2.0,3.0,73,0.00,,---,0.00,0.00,VWS V14.00,2013-01-31 07:48:00,
2013-01-31 01:52:00,37.6,30.4,30.12,SW,226,1.0,3.0,75,0.00,,---,0.00,0.00,VWS V14.00,2013-01-31 07:52:00,
2013-01-31 01:56:00,37.5,29.6,30.12,SW,226,2.0,3.0,73,0.00,,---,0.00,0.00,VWS V14.00,2013-01-31 07:56:00,
2013-01-31 02:00:00,37.2,28.7,30.13,SW,226,1.0,3.0,71,0.00,,---,0.00,0.00,VWS V14.00,2013-01-31 08:00:00,
2013-01-31 02:04:00,37.1,28.6,30.13,SW,226,2.0,2.0,71,0.00,,---,0.00,0.00,VWS V14.00,2013-01-31 08:04:00,
2013-01-31 02:08:00,37.3,28.4,30.13,SSW,198,0.0,2.0,70,0.00,,---,0.00,0.00,VWS V14.00,2013-01-31 08:08:00,
2013-01-31 02:12:00,37.4,28.9,30.13,SW,216,2.0,3.0,71,0.00,,---,0.00,0.00,VWS V14.00,2013-01-31 08:12:00,
2013-01-31 02:16:00,37.5,29.0,30.13,SW,216,2.0,3.0,71,0.00,,---,0.00,0.00,VWS V14.00,2013-01-31 08:16:00,
2013-01-31 02:20:00,37.5,28.6,30.13,SW,223,3.0,3.0,70,0.00,,---,0.00,0.00,VWS V14.00,2013-01-31 08:20:00,
2013-01-31 02:24:00,37.3,28.4,30.13,SSW,210,1.0,4.0,70,0.00,,---,0.00,0.00,VWS V14.00,2013-01-31 08:24:00,
2013-01-31 02:28:00,37.2,28.3,30.13,SSW,210,3.0,4.0,70,0.00,,---,0.00,0.00,VWS V14.00,2013-01-31 08:28:00,
2013-01-31 02:30:00,37.2,28.0,30.14,SSW,210,1.0,5.0,69,0.00,,---,0.00,0.00,VWS V14.00,2013-01-31 08:30:00,
2013-01-31 02:32:00,37.3,28.4,30.14,SW,225,1.0,3.0,70,0.00,,---,0.00,0.00,VWS V14.00,2013-01-31 08:32:00,
2013-01-31 02:36:00,37.3,28.4,30.14,SW,225,1.0,3.0,70,0.00,,---,0.00,0.00,VWS V14.00,2013-01-31 08:36:00,
2013-01-31 02:40:00,37.2,29.0,30.14,SW,225,0.0,3.0,72,0.00,,---,0.00,0.00,VWS V14.00,2013-01-31 08:40:00,
2013-01-31 02:44:00,37.1,28.9,30.14,SW,225,0.0,3.0,72,0.00,,---,0.00,0.00,VWS V14.00,2013-01-31 08:44:00,
2013-01-31 02:48:00,37.0,28.8,30.14,SW,225,0.0,3.0,72,0.00,,---,0.00,0.00,VWS V14.00,2013-01-31 08:48:00,
2013-01-31 02:52:00,36.8,29.0,30.14,SW,225,0.0,3.0,73,0.00,,---,0.00,0.00,VWS V14.00,2013-01-31 08:52:00,
2013-01-31 02:56:00,36.6,28.8,30.14,SW,225,0.0,3.0,73,0.00,,---,0.00,0.00,VWS V14.00,2013-01-31 08:56:00,
2013-01-31 03:00:00,36.5,28.7,30.14,SW,225,0.0,3.0,73,0.00,,---,0.00,0.00,VWS V14.00,2013-01-31 09:00:00,
2013-01-31 03:04:00,36.5,28.7,30.14,SW,225,2.0,2.0,73,0.00,,---,0.00,0.00,VWS V14.00,2013-01-31 09:04:00,
2013-01-31 03:08:00,36.5,28.7,30.14,SW,225,1.0,2.0,73,0.00,,---,0.00,0.00,VWS V14.00,2013-01-31 09:08:00,
2013-01-31 03:12:00,36.4,28.9,30.14,SW,225,2.0,2.0,74,0.00,,---,0.00,0.00,VWS V14.00,2013-01-31 09:12:00,
2013-01-31 03:16:00,36.3,28.8,30.14,SW,225,0.0,2.0,74,0.00,,---,0.00,0.00,VWS V14.00,2013-01-31 09:16:00,
2013-01-31 03:20:00,36.2,28.7,30.14,SW,225,1.0,2.0,74,0.00,,---,0.00,0.00,VWS V14.00,2013-01-31 09:20:00,
2013-01-31 03:24:00,36.0,28.5,30.14,SW,225,2.0,3.0,74,0.00,,---,0.00,0.00,VWS V14.00,2013-01-31 09:24:00,
2013-01-31 03:29:00,35.9,28.4,30.14,SW,225,1.0,3.0,74,0.00,,---,0.00,0.00,VWS V14.00,2013-01-31 09:29:00,
2013-01-31 03:30:00,35.8,28.3,30.14,SW,225,1.0,3.0,74,0.00,,---,0.00,0.00,VWS V14.00,2013-01-31 09:30:00,
2013-01-31 03:33:00,35.8,28.7,30.14,SW,225,2.0,2.0,75,0.00,,---,0.00,0.00,VWS V14.00,2013-01-31 09:33:00,
2013-01-31 03:37:00,35.8,28.3,30.14,SW,225,1.0,4.0,74,0.00,,---,0.00,0.00,VWS V14.00,2013-01-31 09:37:00,
2013-01-31 03:41:00,35.7,28.6,30.14,SW,225,1.0,4.0,75,0.00,,---,0.00,0.00,VWS V14.00,2013-01-31 09:41:00,
2013-01-31 03:45:00,35.7,28.6,30.14,SW,225,0.0,4.0,75,0.00,,---,0.00,0.00,VWS V14.00,2013-01-31 09:45:00,
2013-01-31 03:49:00,35.8,28.0,30.14,SW,225,0.0,4.0,73,0.00,,---,0.00,0.00,VWS V14.00,2013-01-31 09:49:00,
2013-01-31 03:53:00,35.8,28.0,30.14,SW,225,0.0,4.0,73,0.00,,---,0.00,0.00,VWS V14.00,2013-01-31 09:53:00,
2013-01-31 03:57:00,35.6,28.1,30.14,SW,225,0.0,4.0,74,0.00,,---,0.00,0.00,VWS V14.00,2013-01-31 09:57:00,
2013-01-31 04:00:00,35.5,28.0,30.14,SW,225,1.0,4.0,74,0.00,,---,0.00,0.00,VWS V14.00,2013-01-31 10:00:00,
2013-01-31 04:01:00,35.5,28.0,30.14,SW,225,0.0,1.0,74,0.00,,---,0.00,0.00,VWS V14.00,2013-01-31 10:01:00,
2013-01-31 04:05:00,35.6,28.1,30.14,SW,225,0.0,3.0,74,0.00,,---,0.00,0.00,VWS V14.00,2013-01-31 10:05:00,
2013-01-31 04:09:00,35.5,28.4,30.14,SW,225,1.0,3.0,75,0.00,,---,0.00,0.00,VWS V14.00,2013-01-31 10:09:00,
2013-01-31 04:13:00,35.5,28.7,30.14,SW,227,2.0,3.0,76,0.00,,---,0.00,0.00,VWS V14.00,2013-01-31 10:13:00,
2013-01-31 04:17:00,35.6,28.5,30.14,SW,227,2.0,3.0,75,0.00,,---,0.00,0.00,VWS V14.00,2013-01-31 10:17:00,
2013-01-31 04:21:00,36.0,28.5,30.14,SSW,212,3.0,4.0,74,0.00,,---,0.00,0.00,VWS V14.00,2013-01-31 10:21:00,
2013-01-31 04:25:00,36.4,28.6,30.14,SSW,200,2.0,5.0,73,0.00,,---,0.00,0.00,VWS V14.00,2013-01-31 10:25:00,
2013-01-31 04:29:00,36.7,28.2,30.14,SW,227,2.0,5.0,71,0.00,,---,0.00,0.00,VWS V14.00,2013-01-31 10:29:00,
2013-01-31 04:30:00,36.8,28.3,30.14,SW,227,1.0,5.0,71,0.00,,---,0.00,0.00,VWS V14.00,2013-01-31 10:30:00,
2013-01-31 04:33:00,36.9,28.0,30.14,SW,227,1.0,3.0,70,0.00,,---,0.00,0.00,VWS V14.00,2013-01-31 10:33:00,
2013-01-31 04:37:00,36.9,28.0,30.14,SW,227,3.0,3.0,70,0.00,,---,0.00,0.00,VWS V14.00,2013-01-31 10:37:00,
2013-01-31 04:41:00,37.0,28.1,30.14,SW,225,1.0,4.0,70,0.00,,---,0.00,0.00,VWS V14.00,2013-01-31 10:41:00,
2013-01-31 04:45:00,37.0,27.8,30.14,SW,225,3.0,4.0,69,0.00,,---,0.00,0.00,VWS V14.00,2013-01-31 10:45:00,
2013-01-31 04:49:00,37.2,27.6,30.14,SW,225,1.0,4.0,68,0.00,,---,0.00,0.00,VWS V14.00,2013-01-31 10:49:00,
2013-01-31 04:53:00,37.4,27.5,30.14,SSW,200,4.0,4.0,67,0.00,,---,0.00,0.00,VWS V14.00,2013-01-31 10:53:00,
2013-01-31 04:57:00,37.6,27.6,30.14,SSW,193,4.0,4.0,67,0.00,,---,0.00,0.00,VWS V14.00,2013-01-31 10:57:00,
2013-01-31 05:00:00,37.6,27.3,30.14,SW,234,1.0,4.0,66,0.00,,---,0.00,0.00,VWS V14.00,2013-01-31 11:00:00,
2013-01-31 05:01:00,37.5,27.2,30.14,South,180,4.0,4.0,66,0.00,,---,0.00,0.00,VWS V14.00,2013-01-31 11:01:00,
2013-01-31 05:05:00,37.5,26.8,30.14,SW,232,2.0,4.0,65,0.00,,---,0.00,0.00,VWS V14.00,2013-01-31 11:05:00,
2013-01-31 05:09:00,37.7,27.0,30.14,SW,215,1.0,4.0,65,0.00,,---,0.00,0.00,VWS V14.00,2013-01-31 11:09:00,
2013-01-31 05:13:00,37.7,27.0,30.14,SSW,201,3.0,6.0,65,0.00,,---,0.00,0.00,VWS V14.00,2013-01-31 11:13:00,
2013-01-31 05:17:00,37.7,27.0,30.14,WSW,241,2.0,6.0,65,0.00,,---,0.00,0.00,VWS V14.00,2013-01-31 11:17:00,
2013-01-31 05:21:00,37.8,27.1,30.14,SW,227,1.0,6.0,65,0.00,,---,0.00,0.00,VWS V14.00,2013-01-31 11:21:00,
2013-01-31 05:25:00,37.6,26.9,30.14,SSW,200,3.0,6.0,65,0.00,,---,0.00,0.00,VWS V14.00,2013-01-31 11:25:00,
2013-01-31 05:29:00,37.6,27.3,30.14,South,185,4.0,6.0,66,0.00,,---,0.00,0.00,VWS V14.00,2013-01-31 11:29:00,
2013-01-31 05:30:00,37.6,27.3,30.14,SSW,201,2.0,6.0,66,0.00,,---,0.00,0.00,VWS V14.00,2013-01-31 11:30:00,
2013-01-31 05:33:00,37.5,27.2,30.14,SSW,202,3.0,4.0,66,0.00,,---,0.00,0.00,VWS V14.00,2013-01-31 11:33:00,
2013-01-31 05:37:00,37.6,27.3,30.14,SSW,199,1.0,4.0,66,0.00,,---,0.00,0.00,VWS V14.00,2013-01-31 11:37:00,
2013-01-31 05:41:00,37.6,27.3,30.14,SW,217,2.0,4.0,66,0.00,,---,0.00,0.00,VWS V14.00,2013-01-31 11:41:00,
2013-01-31 05:45:00,37.7,27.4,30.14,SSW,192,0.0,4.0,66,0.00,,---,0.00,0.00,VWS V14.00,2013-01-31 11:45:00,
2013-01-31 05:49:00,37.4,27.5,30.14,SW,233,4.0,4.0,67,0.00,,---,0.00,0.00,VWS V14.00,2013-01-31 11:49:00,
2013-01-31 05:53:00,37.3,27.4,30.14,SW,233,1.0,4.0,67,0.00,,---,0.00,0.00,VWS V14.00,2013-01-31 11:53:00,
2013-01-31 05:58:00,37.3,27.0,30.14,SSW,209,0.0,4.0,66,0.00,,---,0.00,0.00,VWS V14.00,2013-01-31 11:58:00,
2013-01-31 06:00:00,37.3,27.0,30.14,SSW,209,0.0,4.0,66,0.00,,---,0.00,0.00,VWS V14.00,2013-01-31 12:00:00,
2013-01-31 06:02:00,37.0,27.1,30.14,SSW,209,0.0,0.0,67,0.00,,---,0.00,0.00,VWS V14.00,2013-01-31 12:02:00,
2013-01-31 06:06:00,37.0,26.7,30.14,SSW,209,0.0,2.0,66,0.00,,---,0.00,0.00,VWS V14.00,2013-01-31 12:06:00,
2013-01-31 06:10:00,36.7,27.1,30.14,SSW,209,0.0,2.0,68,0.00,,---,0.00,0.00,VWS V14.00,2013-01-31 12:10:00,
2013-01-31 06:14:00,36.4,26.9,30.14,SSW,209,0.0,2.0,68,0.00,,---,0.00,0.00,VWS V14.00,2013-01-31 12:14:00,
2013-01-31 06:18:00,36.2,27.0,30.14,SSW,209,1.0,2.0,69,0.00,,---,0.00,0.00,VWS V14.00,2013-01-31 12:18:00,
2013-01-31 06:22:00,36.2,27.4,30.14,South,182,2.0,2.0,70,0.00,,---,0.00,0.00,VWS V14.00,2013-01-31 12:22:00,
2013-01-31 06:26:00,36.4,27.6,30.14,SSW,211,0.0,3.0,70,0.00,,---,0.00,0.00,VWS V14.00,2013-01-31 12:26:00,
2013-01-31 06:30:00,36.4,27.9,30.14,SSW,211,0.0,3.0,71,0.00,,---,0.00,0.00,VWS V14.00,2013-01-31 12:30:00,
2013-01-31 06:34:00,36.4,27.9,30.14,SSW,211,0.0,0.0,71,0.00,,---,0.00,0.00,VWS V14.00,2013-01-31 12:34:00,
2013-01-31 06:38:00,36.5,28.0,30.14,SSW,211,0.0,2.0,71,0.00,,---,0.00,0.00,VWS V14.00,2013-01-31 12:38:00,
2013-01-31 06:42:00,36.3,27.8,30.14,SSW,211,0.0,2.0,71,0.00,,---,0.00,0.00,VWS V14.00,2013-01-31 12:42:00,
2013-01-31 06:46:00,36.2,28.1,30.15,SSW,211,1.0,2.0,72,0.00,,---,0.00,0.00,VWS V14.00,2013-01-31 12:46:00,
2013-01-31 06:50:00,36.2,27.7,30.15,SSW,211,0.0,2.0,71,0.00,,---,0.00,0.00,VWS V14.00,2013-01-31 12:50:00,
2013-01-31 06:54:00,36.1,27.6,30.15,SSW,211,0.0,2.0,71,0.00,,---,0.00,0.00,VWS V14.00,2013-01-31 12:54:00,
2013-01-31 06:58:00,36.0,28.5,30.15,SSW,211,0.0,2.0,74,0.00,,---,0.00,5.00,VWS V14.00,2013-01-31 12:58:00,
2013-01-31 07:00:00,36.0,28.2,30.16,SSW,211,1.0,2.0,73,0.00,,---,0.00,7.00,VWS V14.00,2013-01-31 13:00:00,
2013-01-31 07:02:00,36.0,28.5,30.16,SSW,211,3.0,3.0,74,0.00,,---,0.00,11.00,VWS V14.00,2013-01-31 13:02:00,
2013-01-31 07:06:00,36.1,28.6,30.16,South,184,1.0,4.0,74,0.00,,---,0.00,19.00,VWS V14.00,2013-01-31 13:06:00,
2013-01-31 07:10:00,36.1,29.3,30.16,South,184,1.0,4.0,76,0.00,,---,0.00,25.00,VWS V14.00,2013-01-31 13:10:00,
2013-01-31 07:14:00,36.3,29.5,30.16,South,184,2.0,4.0,76,0.00,,---,0.00,37.00,VWS V14.00,2013-01-31 13:14:00,
2013-01-31 07:18:00,36.8,29.3,30.16,South,184,2.0,4.0,74,0.00,,---,0.00,46.00,VWS V14.00,2013-01-31 13:18:00,
2013-01-31 07:22:00,37.6,29.7,30.16,South,184,4.0,4.0,73,0.00,,---,0.00,58.00,VWS V14.00,2013-01-31 13:22:00,
2013-01-31 07:26:00,38.5,28.5,30.16,South,181,5.0,6.0,67,0.00,,---,0.00,70.00,VWS V14.00,2013-01-31 13:26:00,
2013-01-31 07:30:00,38.8,29.2,30.17,South,184,7.0,7.0,68,0.00,,---,0.00,79.00,VWS V14.00,2013-01-31 13:30:00,
2013-01-31 07:34:00,38.9,29.2,30.17,South,186,5.0,7.0,68,0.00,,---,0.00,83.00,VWS V14.00,2013-01-31 13:34:00,
2013-01-31 07:38:00,39.1,29.5,30.17,South,179,6.0,7.0,68,0.00,,---,0.00,49.00,VWS V14.00,2013-01-31 13:38:00,
2013-01-31 07:42:00,39.3,29.6,30.17,South,188,10.0,10.0,68,0.00,,---,0.00,76.00,VWS V14.00,2013-01-31 13:42:00,
2013-01-31 07:46:00,39.5,29.8,30.18,South,184,10.0,10.0,68,0.00,,---,0.00,130.00,VWS V14.00,2013-01-31 13:46:00,
2013-01-31 07:50:00,39.9,30.6,30.18,SSW,197,4.0,10.0,69,0.00,,---,0.00,144.00,VWS V14.00,2013-01-31 13:50:00,
2013-01-31 07:54:00,40.2,30.5,30.18,South,178,5.0,10.0,68,0.00,,---,0.00,153.00,VWS V14.00,2013-01-31 13:54:00,
2013-01-31 07:58:00,40.5,30.0,30.18,SSW,198,4.0,10.0,66,0.00,,---,0.00,167.00,VWS V14.00,2013-01-31 13:58:00,
2013-01-31 08:00:00,40.6,30.5,30.18,South,188,8.0,10.0,67,0.00,,---,0.00,172.00,VWS V14.00,2013-01-31 14:00:00,
2013-01-31 08:02:00,40.8,30.3,30.18,South,184,3.0,9.0,66,0.00,,---,0.00,179.00,VWS V14.00,2013-01-31 14:02:00,
2013-01-31 08:06:00,41.2,30.7,30.18,SSW,200,6.0,9.0,66,0.00,,---,0.00,192.00,VWS V14.00,2013-01-31 14:06:00,
2013-01-31 08:10:00,41.6,31.1,30.18,South,186,5.0,9.0,66,0.00,,---,0.00,204.00,VWS V14.00,2013-01-31 14:10:00,
2013-01-31 08:14:00,41.9,30.6,30.19,South,190,4.0,10.0,64,0.00,,---,0.00,216.00,VWS V14.00,2013-01-31 14:14:00,
2013-01-31 08:18:00,42.0,30.7,30.19,South,170,6.0,10.0,64,0.00,,---,0.00,223.00,VWS V14.00,2013-01-31 14:18:00,
2013-01-31 08:22:00,42.3,31.4,30.19,SSW,194,4.0,10.0,65,0.00,,---,0.00,241.00,VWS V14.00,2013-01-31 14:22:00,
2013-01-31 08:26:00,42.8,31.1,30.19,SSW,194,10.0,10.0,63,0.00,,---,0.00,255.00,VWS V14.00,2013-01-31 14:26:00,
2013-01-31 08:30:00,43.5,32.2,30.19,SSW,195,4.0,10.0,64,0.00,,---,0.00,265.00,VWS V14.00,2013-01-31 14:30:00,
2013-01-31 08:31:00,43.6,31.5,30.19,South,188,6.0,6.0,62,0.00,,---,0.00,267.00,VWS V14.00,2013-01-31 14:31:00,
2013-01-31 08:35:00,44.2,30.8,30.19,SSW,198,6.0,9.0,59,0.00,,---,0.00,278.00,VWS V14.00,2013-01-31 14:35:00,
2013-01-31 08:39:00,44.9,31.5,30.19,SSW,205,4.0,9.0,59,0.00,,---,0.00,292.00,VWS V14.00,2013-01-31 14:39:00,
2013-01-31 08:43:00,45.4,32.3,30.19,SW,233,6.0,9.0,60,0.00,,---,0.00,304.00,VWS V14.00,2013-01-31 14:43:00,
2013-01-31 08:47:00,45.9,31.1,30.19,South,187,5.0,15.0,56,0.00,,---,0.00,315.00,VWS V14.00,2013-01-31 14:47:00,
2013-01-31 08:51:00,46.2,30.5,30.19,SW,221,5.0,15.0,54,0.00,,---,0.00,327.00,VWS V14.00,2013-01-31 14:51:00,
2013-01-31 08:55:00,46.5,29.8,30.19,SW,215,6.0,15.0,52,0.00,,---,0.00,339.00,VWS V14.00,2013-01-31 14:55:00,
2013-01-31 08:59:00,46.9,30.2,30.19,South,186,5.0,15.0,52,0.00,,---,0.00,352.00,VWS V14.00,2013-01-31 14:59:00,
2013-01-31 09:00:00,47.1,30.9,30.19,SW,215,14.0,15.0,53,0.00,,---,0.00,355.00,VWS V14.00,2013-01-31 15:00:00,
2013-01-31 09:03:00,47.4,29.7,30.19,WSW,246,9.0,11.0,50,0.00,,---,0.00,366.00,VWS V14.00,2013-01-31 15:03:00,
2013-01-31 09:07:00,47.9,31.1,30.19,SSW,196,6.0,11.0,52,0.00,,---,0.00,376.00,VWS V14.00,2013-01-31 15:07:00,
2013-01-31 09:11:00,48.3,30.0,30.19,SW,216,6.0,11.0,49,0.00,,---,0.00,387.00,VWS V14.00,2013-01-31 15:11:00,
2013-01-31 09:15:00,49.1,30.8,30.19,WSW,244,3.0,13.0,49,0.00,,---,0.00,399.00,VWS V14.00,2013-01-31 15:15:00,
2013-01-31 09:19:00,49.6,29.1,30.19,South,190,11.0,13.0,45,0.00,,---,0.00,408.00,VWS V14.00,2013-01-31 15:19:00,
2013-01-31 09:23:00,49.6,30.2,30.19,SSW,199,5.0,14.0,47,0.00,,---,0.00,420.00,VWS V14.00,2013-01-31 15:23:00,
2013-01-31 09:27:00,50.1,29.6,30.19,SSW,198,6.0,14.0,45,0.00,,---,0.00,432.00,VWS V14.00,2013-01-31 15:27:00,
2013-01-31 09:30:00,50.3,29.2,30.20,South,169,4.0,14.0,44,0.00,,---,0.00,438.00,VWS V14.00,2013-01-31 15:30:00,
2013-01-31 09:31:00,50.4,29.9,30.20,SSW,206,7.0,7.0,45,0.00,,---,0.00,439.00,VWS V14.00,2013-01-31 15:31:00,
2013-01-31 09:35:00,51.0,31.0,30.20,SSW,209,11.0,12.0,46,0.00,,---,0.00,452.00,VWS V14.00,2013-01-31 15:35:00,
2013-01-31 09:45:00,52.1,30.9,30.19,SSW,196,5.0,9.0,44,0.00,,---,0.00,475.00,VWS V14.00,2013-01-31 15:45:00,
2013-01-31 09:49:00,52.3,29.3,30.19,SSW,200,7.0,11.0,41,0.00,,---,0.00,482.00,VWS V14.00,2013-01-31 15:49:00,
2013-01-31 09:53:00,52.8,30.4,30.19,SSW,206,5.0,11.0,42,0.00,,---,0.00,494.00,VWS V14.00,2013-01-31 15:53:00,
2013-01-31 09:57:00,53.1,30.0,30.19,SSW,196,13.0,13.0,41,0.00,,---,0.00,504.00,VWS V14.00,2013-01-31 15:57:00,
2013-01-31 10:00:00,53.4,28.5,30.19,SW,231,7.0,13.0,38,0.00,,---,0.00,512.00,VWS V14.00,2013-01-31 16:00:00,
2013-01-31 10:01:00,53.5,29.2,30.19,SW,223,4.0,10.0,39,0.00,,---,0.00,513.00,VWS V14.00,2013-01-31 16:01:00,
2013-01-31 10:05:00,54.4,29.3,30.19,SW,214,4.0,12.0,38,0.00,,---,0.00,519.00,VWS V14.00,2013-01-31 16:05:00,
2013-01-31 10:09:00,54.9,28.5,30.19,SW,217,3.0,13.0,36,0.00,,---,0.00,529.00,VWS V14.00,2013-01-31 16:09:00,
2013-01-31 10:13:00,55.4,28.9,30.19,WSW,237,3.0,13.0,36,0.00,,---,0.00,540.00,VWS V14.00,2013-01-31 16:13:00,
2013-01-31 10:17:00,55.4,29.6,30.19,SW,232,7.0,13.0,37,0.00,,---,0.00,547.00,VWS V14.00,2013-01-31 16:17:00,
2013-01-31 10:21:00,55.5,28.3,30.19,SSW,194,4.0,16.0,35,0.00,,---,0.00,555.00,VWS V14.00,2013-01-31 16:21:00,
2013-01-31 10:25:00,56.0,28.8,30.19,SSW,203,5.0,16.0,35,0.00,,---,0.00,563.00,VWS V14.00,2013-01-31 16:25:00,
2013-01-31 10:29:00,56.8,28.0,30.20,South,190,4.0,16.0,33,0.00,,---,0.00,570.00,VWS V14.00,2013-01-31 16:29:00,
2013-01-31 10:30:00,56.8,28.0,30.20,SW,215,3.0,16.0,33,0.00,,---,0.00,571.00,VWS V14.00,2013-01-31 16:30:00,
2013-01-31 10:33:00,56.9,28.1,30.20,SSW,193,5.0,13.0,33,0.00,,---,0.00,575.00,VWS V14.00,2013-01-31 16:33:00,
2013-01-31 10:37:00,57.3,30.6,30.20,SW,228,10.0,13.0,36,0.00,,---,0.00,584.00,VWS V14.00,2013-01-31 16:37:00,
2013-01-31 10:41:00,56.9,28.1,30.20,SSW,196,5.0,13.0,33,0.00,,---,0.00,587.00,VWS V14.00,2013-01-31 16:41:00,
2013-01-31 10:46:00,56.8,26.5,30.20,SW,214,14.0,14.0,31,0.00,,---,0.00,596.00,VWS V14.00,2013-01-31 16:46:00,
2013-01-31 10:50:00,57.5,27.9,30.20,SW,218,8.0,14.0,32,0.00,,---,0.00,603.00,VWS V14.00,2013-01-31 16:50:00,
2013-01-31 10:54:00,57.9,29.7,30.20,SSW,205,6.0,14.0,34,0.00,,---,0.00,606.00,VWS V14.00,2013-01-31 16:54:00,
2013-01-31 10:58:00,57.7,26.5,30.20,South,178,5.0,14.0,30,0.00,,---,0.00,610.00,VWS V14.00,2013-01-31 16:58:00,
2013-01-31 11:00:00,58.1,31.3,30.19,SSW,201,5.0,14.0,36,0.00,,---,0.00,613.00,VWS V14.00,2013-01-31 17:00:00,
2013-01-31 11:02:00,58.4,31.6,30.19,South,186,4.0,5.0,36,0.00,,---,0.00,615.00,VWS V14.00,2013-01-31 17:02:00,
2013-01-31 11:06:00,59.4,28.8,30.19,SSW,205,3.0,5.0,31,0.00,,---,0.00,621.00,VWS V14.00,2013-01-31 17:06:00,
2013-01-31 11:10:00,59.2,32.3,30.19,SSW,207,4.0,9.0,36,0.00,,---,0.00,626.00,VWS V14.00,2013-01-31 17:10:00,
2013-01-31 11:14:00,59.0,30.0,30.19,South,186,10.0,10.0,33,0.00,,---,0.00,631.00,VWS V14.00,2013-01-31 17:14:00,
2013-01-31 11:18:00,59.2,27.8,30.19,SSW,194,5.0,10.0,30,0.00,,---,0.00,635.00,VWS V14.00,2013-01-31 17:18:00,
2013-01-31 11:22:00,59.3,26.2,30.19,SW,214,2.0,11.0,28,0.00,,---,0.00,640.00,VWS V14.00,2013-01-31 17:22:00,
2013-01-31 11:26:00,60.1,28.6,30.19,SSW,199,3.0,16.0,30,0.00,,---,0.00,642.00,VWS V14.00,2013-01-31 17:26:00,
2013-01-31 11:30:00,60.3,29.6,30.19,South,185,6.0,16.0,31,0.00,,---,0.00,647.00,VWS V14.00,2013-01-31 17:30:00,
2013-01-31 11:34:00,60.8,26.6,30.19,SW,222,10.0,10.0,27,0.00,,---,0.00,650.00,VWS V14.00,2013-01-31 17:34:00,
2013-01-31 11:38:00,61.4,28.0,30.19,SW,217,4.0,10.0,28,0.00,,---,0.00,652.00,VWS V14.00,2013-01-31 17:38:00,
2013-01-31 11:42:00,61.6,27.3,30.19,West,281,0.0,10.0,27,0.00,,---,0.00,652.00,VWS V14.00,2013-01-31 17:42:00,
2013-01-31 11:46:00,62.8,28.4,30.18,WSW,245,9.0,10.0,27,0.00,,---,0.00,656.00,VWS V14.00,2013-01-31 17:46:00,
2013-01-31 11:50:00,62.2,24.0,30.18,WSW,240,9.0,12.0,23,0.00,,---,0.00,657.00,VWS V14.00,2013-01-31 17:50:00,
2013-01-31 11:54:00,62.2,26.0,30.18,South,189,17.0,17.0,25,0.00,,---,0.00,661.00,VWS V14.00,2013-01-31 17:54:00,
2013-01-31 11:58:00,62.1,28.6,30.18,WSW,242,2.0,17.0,28,0.00,,---,0.00,659.00,VWS V14.00,2013-01-31 17:58:00,
2013-01-31 12:00:00,62.9,30.2,30.18,West,263,5.0,17.0,29,0.00,,---,0.00,656.00,VWS V14.00,2013-01-31 18:00:00,
2013-01-31 12:02:00,63.3,24.9,30.18,WSW,252,4.0,9.0,23,0.00,,---,0.00,659.00,VWS V14.00,2013-01-31 18:02:00,
2013-01-31 12:06:00,63.0,24.6,30.18,SSW,200,13.0,13.0,23,0.00,,---,0.00,663.00,VWS V14.00,2013-01-31 18:06:00,
2013-01-31 12:10:00,62.8,27.4,30.18,SW,219,5.0,13.0,26,0.00,,---,0.00,663.00,VWS V14.00,2013-01-31 18:10:00,
2013-01-31 12:14:00,63.3,24.9,30.16,SSW,204,4.0,13.0,23,0.00,,---,0.00,661.00,VWS V14.00,2013-01-31 18:14:00,
2013-01-31 12:18:00,64.0,25.5,30.16,SSW,200,4.0,13.0,23,0.00,,---,0.00,664.00,VWS V14.00,2013-01-31 18:18:00,
2013-01-31 12:22:00,64.0,25.5,30.16,South,191,8.0,13.0,23,0.00,,---,0.00,663.00,VWS V14.00,2013-01-31 18:22:00,
2013-01-31 12:26:00,63.5,26.1,30.16,SSW,193,6.0,13.0,24,0.00,,---,0.00,663.00,VWS V14.00,2013-01-31 18:26:00,
2013-01-31 12:30:00,63.2,26.8,30.16,South,173,3.0,13.0,25,0.00,,---,0.00,659.00,VWS V14.00,2013-01-31 18:30:00,
2013-01-31 12:34:00,63.8,24.2,30.16,SSW,192,7.0,13.0,22,0.00,,---,0.00,654.00,VWS V14.00,2013-01-31 18:34:00,
2013-01-31 12:38:00,63.9,23.2,30.16,West,265,2.0,13.0,21,0.00,,---,0.00,656.00,VWS V14.00,2013-01-31 18:38:00,
2013-01-31 12:42:00,64.9,30.1,30.16,South,169,5.0,13.0,27,0.00,,---,0.00,652.00,VWS V14.00,2013-01-31 18:42:00,
2013-01-31 12:46:00,64.8,22.8,30.15,South,184,12.0,13.0,20,0.00,,---,0.00,652.00,VWS V14.00,2013-01-31 18:46:00,
2013-01-31 12:50:00,64.7,25.0,30.15,SSW,198,16.0,16.0,22,0.00,,---,0.00,652.00,VWS V14.00,2013-01-31 18:50:00,
2013-01-31 12:54:00,64.9,25.2,30.15,SW,219,6.0,16.0,22,0.00,,---,0.00,647.00,VWS V14.00,2013-01-31 18:54:00,
2013-01-31 12:58:00,64.9,22.9,30.15,SW,220,3.0,16.0,20,0.00,,---,0.00,642.00,VWS V14.00,2013-01-31 18:58:00,
2013-01-31 13:00:00,65.0,23.0,30.14,WNW,294,1.0,16.0,20,0.00,,---,0.00,642.00,VWS V14.00,2013-01-31 19:00:00,
2013-01-31 13:03:00,65.0,23.0,30.14,SW,218,4.0,13.0,20,0.00,,---,0.00,642.00,VWS V14.00,2013-01-31 19:03:00,
2013-01-31 13:07:00,64.9,22.9,30.14,SSW,208,6.0,13.0,20,0.00,,---,0.00,635.00,VWS V14.00,2013-01-31 19:07:00,
2013-01-31 13:11:00,65.2,23.1,30.14,WSW,244,9.0,13.0,20,0.00,,---,0.00,636.00,VWS V14.00,2013-01-31 19:11:00,
2013-01-31 13:15:00,65.2,26.5,30.13,SSW,209,9.0,13.0,23,0.00,,---,0.00,631.00,VWS V14.00,2013-01-31 19:15:00,
2013-01-31 13:19:00,64.7,25.0,30.13,SSW,193,5.0,14.0,22,0.00,,---,0.00,628.00,VWS V14.00,2013-01-31 19:19:00,
2013-01-31 13:23:00,64.9,24.1,30.13,SSW,204,6.0,14.0,21,0.00,,---,0.00,622.00,VWS V14.00,2013-01-31 19:23:00,
2013-01-31 13:27:00,64.5,23.7,30.13,South,189,7.0,14.0,21,0.00,,---,0.00,619.00,VWS V14.00,2013-01-31 19:27:00,
2013-01-31 13:30:00,65.1,24.2,30.11,South,175,9.0,14.0,21,0.00,,---,0.00,603.00,VWS V14.00,2013-01-31 19:30:00,
2013-01-31 13:31:00,65.1,24.2,30.11,South,190,10.0,10.0,21,0.00,,---,0.00,603.00,VWS V14.00,2013-01-31 19:31:00,
2013-01-31 13:35:00,64.5,26.9,30.11,South,173,5.0,13.0,24,0.00,,---,0.00,601.00,VWS V14.00,2013-01-31 19:35:00,
2013-01-31 13:39:00,65.4,26.7,30.11,WSW,244,5.0,13.0,23,0.00,,---,0.00,601.00,VWS V14.00,2013-01-31 19:39:00,
2013-01-31 13:43:00,65.8,27.0,30.11,SSW,192,13.0,16.0,23,0.00,,---,0.00,570.00,VWS V14.00,2013-01-31 19:43:00,
2013-01-31 13:47:00,65.3,24.4,30.11,SSW,208,10.0,16.0,21,0.00,,---,0.00,527.00,VWS V14.00,2013-01-31 19:47:00,
2013-01-31 13:51:00,65.7,24.7,30.11,SW,232,11.0,16.0,21,0.00,,---,0.00,575.00,VWS V14.00,2013-01-31 19:51:00,
2013-01-31 13:55:00,65.6,24.6,30.11,South,179,6.0,16.0,21,0.00,,---,0.00,573.00,VWS V14.00,2013-01-31 19:55:00,
2013-01-31 13:59:00,65.7,24.7,30.11,SSW,211,6.0,16.0,21,0.00,,---,0.00,568.00,VWS V14.00,2013-01-31 19:59:00,
2013-01-31 14:00:00,65.9,27.1,30.11,SW,223,4.0,16.0,23,0.00,,---,0.00,566.00,VWS V14.00,2013-01-31 20:00:00,
2013-01-31 14:03:00,66.3,24.1,30.11,SSW,202,11.0,11.0,20,0.00,,---,0.00,561.00,VWS V14.00,2013-01-31 20:03:00,
2013-01-31 14:07:00,65.8,27.0,30.11,South,183,10.0,11.0,23,0.00,,---,0.00,554.00,VWS V14.00,2013-01-31 20:07:00,
2013-01-31 14:11:00,65.1,26.4,30.11,South,182,6.0,11.0,23,0.00,,---,0.00,541.00,VWS V14.00,2013-01-31 20:11:00,
2013-01-31 14:15:00,66.2,26.3,30.10,SSW,198,11.0,11.0,22,0.00,,---,0.00,538.00,VWS V14.00,2013-01-31 20:15:00,
2013-01-31 14:19:00,65.8,25.9,30.10,SSW,196,10.0,11.0,22,0.00,,---,0.00,527.00,VWS V14.00,2013-01-31 20:19:00,
2013-01-31 14:23:00,65.4,25.6,30.10,SSW,200,4.0,11.0,22,0.00,,---,0.00,513.00,VWS V14.00,2013-01-31 20:23:00,
2013-01-31 14:27:00,65.2,28.5,30.10,SSW,194,12.0,12.0,25,0.00,,---,0.00,508.00,VWS V14.00,2013-01-31 20:27:00,
2013-01-31 14:30:00,65.0,27.4,30.11,South,178,11.0,12.0,24,0.00,,---,0.00,497.00,VWS V14.00,2013-01-31 20:30:00,
2013-01-31 14:31:00,65.1,27.4,30.11,SSW,196,7.0,11.0,24,0.00,,---,0.00,497.00,VWS V14.00,2013-01-31 20:31:00,
2013-01-31 14:35:00,65.6,25.8,30.11,SW,231,2.0,11.0,22,0.00,,---,0.00,489.00,VWS V14.00,2013-01-31 20:35:00,
2013-01-31 14:39:00,66.6,26.6,30.11,WSW,238,6.0,11.0,22,0.00,,---,0.00,483.00,VWS V14.00,2013-01-31 20:39:00,
2013-01-31 14:43:00,66.8,25.6,30.11,South,183,9.0,11.0,21,0.00,,---,0.00,475.00,VWS V14.00,2013-01-31 20:43:00,
2013-01-31 14:47:00,65.5,24.6,30.11,SW,219,7.0,13.0,21,0.00,,---,0.00,436.00,VWS V14.00,2013-01-31 20:47:00,
2013-01-31 14:51:00,65.2,24.3,30.11,West,276,8.0,13.0,21,0.00,,---,0.00,459.00,VWS V14.00,2013-01-31 20:51:00,
2013-01-31 14:55:00,65.4,23.3,30.11,WSW,248,7.0,13.0,20,0.00,,---,0.00,438.00,VWS V14.00,2013-01-31 20:55:00,
2013-01-31 14:59:00,65.7,24.7,30.11,SW,232,6.0,13.0,21,0.00,,---,0.00,387.00,VWS V14.00,2013-01-31 20:59:00,
2013-01-31 15:00:00,65.7,24.7,30.11,SW,231,7.0,13.0,21,0.00,,---,0.00,438.00,VWS V14.00,2013-01-31 21:00:00,
2013-01-31 15:03:00,65.4,24.5,30.11,SW,223,5.0,10.0,21,0.00,,---,0.00,424.00,VWS V14.00,2013-01-31 21:03:00,
2013-01-31 15:07:00,65.6,25.8,30.11,West,260,4.0,12.0,22,0.00,,---,0.00,410.00,VWS V14.00,2013-01-31 21:07:00,
2013-01-31 15:12:00,65.6,24.6,30.11,South,185,6.0,13.0,21,0.00,,---,0.00,397.00,VWS V14.00,2013-01-31 21:12:00,
2013-01-31 15:16:00,65.4,24.5,30.11,South,178,0.0,13.0,21,0.00,,---,0.00,383.00,VWS V14.00,2013-01-31 21:16:00,
2013-01-31 15:20:00,65.6,24.6,30.11,South,173,10.0,13.0,21,0.00,,---,0.00,369.00,VWS V14.00,2013-01-31 21:20:00,
2013-01-31 15:24:00,65.0,26.3,30.11,SSW,202,4.0,13.0,23,0.00,,---,0.00,367.00,VWS V14.00,2013-01-31 21:24:00,
2013-01-31 15:28:00,64.5,28.9,30.11,SSW,203,8.0,13.0,26,0.00,,---,0.00,346.00,VWS V14.00,2013-01-31 21:28:00,
2013-01-31 15:30:00,64.2,28.6,30.10,SSW,198,7.0,13.0,26,0.00,,---,0.00,339.00,VWS V14.00,2013-01-31 21:30:00,
2013-01-31 15:32:00,64.1,27.6,30.10,SSW,193,7.0,7.0,25,0.00,,---,0.00,334.00,VWS V14.00,2013-01-31 21:32:00,
2013-01-31 15:36:00,64.1,27.6,30.10,South,190,10.0,14.0,25,0.00,,---,0.00,327.00,VWS V14.00,2013-01-31 21:36:00,
2013-01-31 15:40:00,64.3,29.6,30.10,SSW,212,5.0,14.0,27,0.00,,---,0.00,313.00,VWS V14.00,2013-01-31 21:40:00,
2013-01-31 15:44:00,64.9,29.2,30.10,SSW,212,8.0,14.0,26,0.00,,---,0.00,297.00,VWS V14.00,2013-01-31 21:44:00,
2013-01-31 15:48:00,64.9,27.3,30.10,SW,221,4.0,14.0,24,0.00,,---,0.00,288.00,VWS V14.00,2013-01-31 21:48:00,
2013-01-31 15:52:00,64.7,28.1,30.10,SSW,210,3.0,14.0,25,0.00,,---,0.00,278.00,VWS V14.00,2013-01-31 21:52:00,
2013-01-31 15:56:00,64.8,26.2,30.10,South,179,5.0,14.0,23,0.00,,---,0.00,258.00,VWS V14.00,2013-01-31 21:56:00,
2013-01-31 16:00:00,64.6,26.0,30.10,SW,229,3.0,14.0,23,0.00,,---,0.00,250.00,VWS V14.00,2013-01-31 22:00:00,
2013-01-31 16:04:00,64.6,29.0,30.10,SSW,192,14.0,14.0,26,0.00,,---,0.00,229.00,VWS V14.00,2013-01-31 22:04:00,
2013-01-31 16:08:00,63.7,27.2,30.10,South,184,6.0,14.0,25,0.00,,---,0.00,216.00,VWS V14.00,2013-01-31 22:08:00,
2013-01-31 16:12:00,63.5,29.0,30.10,SSW,192,10.0,14.0,27,0.00,,---,0.00,155.00,VWS V14.00,2013-01-31 22:12:00,
2013-01-31 16:16:00,63.5,27.1,30.10,SSW,205,9.0,14.0,25,0.00,,---,0.00,120.00,VWS V14.00,2013-01-31 22:16:00,
2013-01-31 16:20:00,63.3,26.9,30.10,SSW,203,5.0,14.0,25,0.00,,---,0.00,137.00,VWS V14.00,2013-01-31 22:20:00,
2013-01-31 16:24:00,63.3,28.8,30.10,South,187,4.0,14.0,27,0.00,,---,0.00,111.00,VWS V14.00,2013-01-31 22:24:00,
2013-01-31 16:28:00,62.9,28.4,30.10,SSE,159,4.0,14.0,27,0.00,,---,0.00,123.00,VWS V14.00,2013-01-31 22:28:00,
2013-01-31 16:30:00,62.8,28.4,30.10,SW,216,5.0,14.0,27,0.00,,---,0.00,123.00,VWS V14.00,2013-01-31 22:30:00,
2013-01-31 16:32:00,62.6,29.1,30.10,SSW,209,2.0,5.0,28,0.00,,---,0.00,104.00,VWS V14.00,2013-01-31 22:32:00,
2013-01-31 16:36:00,62.3,29.7,30.10,SSW,205,4.0,6.0,29,0.00,,---,0.00,53.00,VWS V14.00,2013-01-31 22:36:00,
2013-01-31 16:40:00,62.2,28.7,30.10,SSW,198,7.0,7.0,28,0.00,,---,0.00,63.00,VWS V14.00,2013-01-31 22:40:00,
2013-01-31 16:44:00,61.7,28.3,30.10,SSW,208,12.0,12.0,28,0.00,,---,0.00,56.00,VWS V14.00,2013-01-31 22:44:00,
2013-01-31 16:48:00,61.6,28.2,30.10,SSW,209,4.0,12.0,28,0.00,,---,0.00,42.00,VWS V14.00,2013-01-31 22:48:00,
2013-01-31 16:52:00,61.6,29.9,30.10,SSW,202,2.0,12.0,30,0.00,,---,0.00,42.00,VWS V14.00,2013-01-31 22:52:00,
2013-01-31 16:56:00,61.3,29.6,30.10,SSW,207,6.0,12.0,30,0.00,,---,0.00,42.00,VWS V14.00,2013-01-31 22:56:00,
2013-01-31 17:00:00,61.1,27.8,30.10,SSW,207,4.0,12.0,28,0.00,,---,0.00,40.00,VWS V14.00,2013-01-31 23:00:00,
2013-01-31 17:04:00,61.3,29.6,30.10,SSW,198,3.0,9.0,30,0.00,,---,0.00,35.00,VWS V14.00,2013-01-31 23:04:00,
2013-01-31 17:08:00,60.8,30.0,30.10,SSW,202,3.0,9.0,31,0.00,,---,0.00,32.00,VWS V14.00,2013-01-31 23:08:00,
2013-01-31 17:12:00,60.9,27.6,30.10,SW,214,4.0,10.0,28,0.00,,---,0.00,26.00,VWS V14.00,2013-01-31 23:12:00,
2013-01-31 17:17:00,60.8,27.5,30.12,SW,215,4.0,10.0,28,0.00,,---,0.00,16.00,VWS V14.00,2013-01-31 23:17:00,
2013-01-31 17:21:00,60.4,28.0,30.12,SW,219,2.0,10.0,29,0.00,,---,0.00,12.00,VWS V14.00,2013-01-31 23:21:00,
2013-01-31 17:25:00,59.9,30.0,30.12,SW,219,0.0,10.0,32,0.00,,---,0.00,7.00,VWS V14.00,2013-01-31 23:25:00,
2013-01-31 17:29:00,59.2,30.9,30.12,SW,219,0.0,10.0,34,0.00,,---,0.00,0.00,VWS V14.00,2013-01-31 23:29:00,
2013-01-31 17:30:00,58.8,31.2,30.13,SW,219,0.0,10.0,35,0.00,,---,0.00,0.00,VWS V14.00,2013-01-31 23:30:00,
2013-01-31 17:33:00,58.5,31.0,30.13,SW,219,0.0,0.0,35,0.00,,---,0.00,0.00,VWS V14.00,2013-01-31 23:33:00,
2013-01-31 17:37:00,58.3,30.8,30.13,SW,219,0.0,0.0,35,0.00,,---,0.00,0.00,VWS V14.00,2013-01-31 23:37:00,
2013-01-31 17:41:00,58.1,29.9,30.13,SW,219,0.0,0.0,34,0.00,,---,0.00,0.00,VWS V14.00,2013-01-31 23:41:00,
2013-01-31 17:49:00,57.4,28.5,30.13,SW,218,0.0,0.0,33,0.00,,---,0.00,0.00,VWS V14.00,2013-01-31 23:49:00,
2013-01-31 17:53:00,56.7,28.7,30.13,SW,219,0.0,0.0,34,0.00,,---,0.00,0.00,VWS V14.00,2013-01-31 23:53:00,
2013-01-31 17:57:00,56.2,27.5,30.13,SW,218,0.0,0.0,33,0.00,,---,0.00,0.00,VWS V14.00,2013-01-31 23:57:00,
2013-01-31 18:00:00,56.0,28.0,30.14,SW,219,0.0,0.0,34,0.00,,---,0.00,0.00,VWS V14.00,2013-02-01 00:00:00,
2013-01-31 18:01:00,56.0,28.0,30.14,SW,219,0.0,0.0,34,0.00,,---,0.00,0.00,VWS V14.00,2013-02-01 00:01:00,
2013-01-31 18:05:00,54.7,29.6,30.14,SW,218,0.0,0.0,38,0.00,,---,0.00,0.00,VWS V14.00,2013-02-01 00:05:00,
2013-01-31 18:09:00,53.8,30.7,30.14,SW,218,0.0,0.0,41,0.00,,---,0.00,0.00,VWS V14.00,2013-02-01 00:09:00,
2013-01-31 18:13:00,53.4,32.6,30.14,SW,218,0.0,0.0,45,0.00,,---,0.00,0.00,VWS V14.00,2013-02-01 00:13:00,
2013-01-31 18:17:00,52.6,33.0,30.15,SW,219,0.0,0.0,47,0.00,,---,0.00,0.00,VWS V14.00,2013-02-01 00:17:00,
2013-01-31 18:21:00,52.1,32.5,30.15,SW,218,0.0,0.0,47,0.00,,---,0.00,0.00,VWS V14.00,2013-02-01 00:21:00,
2013-01-31 18:25:00,51.7,32.7,30.15,SW,218,0.0,0.0,48,0.00,,---,0.00,0.00,VWS V14.00,2013-02-01 00:25:00,
2013-01-31 18:29:00,50.9,33.4,30.15,SW,218,0.0,0.0,51,0.00,,---,0.00,0.00,VWS V14.00,2013-02-01 00:29:00,
2013-01-31 18:30:00,50.8,33.3,30.15,SW,218,0.0,0.0,51,0.00,,---,0.00,0.00,VWS V14.00,2013-02-01 00:30:00,
2013-01-31 18:33:00,50.9,32.9,30.15,SW,219,0.0,0.0,50,0.00,,---,0.00,0.00,VWS V14.00,2013-02-01 00:33:00,
2013-01-31 18:37:00,51.0,32.5,30.15,SW,218,0.0,0.0,49,0.00,,---,0.00,0.00,VWS V14.00,2013-02-01 00:37:00,
2013-01-31 18:41:00,51.1,33.1,30.15,SW,219,0.0,0.0,50,0.00,,---,0.00,0.00,VWS V14.00,2013-02-01 00:41:00,
2013-01-31 18:45:00,51.5,34.5,30.15,SW,218,0.0,0.0,52,0.00,,---,0.00,0.00,VWS V14.00,2013-02-01 00:45:00,
2013-01-31 18:49:00,51.5,34.0,30.15,SW,218,0.0,0.0,51,0.00,,---,0.00,0.00,VWS V14.00,2013-02-01 00:49:00,
2013-01-31 18:53:00,51.2,34.2,30.15,SW,219,0.0,0.0,52,0.00,,---,0.00,0.00,VWS V14.00,2013-02-01 00:53:00,
2013-01-31 18:57:00,51.1,33.1,30.15,SW,218,0.0,0.0,50,0.00,,---,0.00,0.00,VWS V14.00,2013-02-01 00:57:00,
2013-01-31 19:00:00,51.6,31.0,30.16,SW,218,0.0,1.0,45,0.00,,---,0.00,0.00,VWS V14.00,2013-02-01 01:00:00,
2013-01-31 19:01:00,51.7,32.1,30.16,SW,219,0.0,0.0,47,0.00,,---,0.00,0.00,VWS V14.00,2013-02-01 01:01:00,
2013-01-31 19:05:00,51.6,31.0,30.16,SW,218,0.0,0.0,45,0.00,,---,0.00,0.00,VWS V14.00,2013-02-01 01:05:00,
2013-01-31 19:09:00,50.9,33.4,30.16,SW,218,0.0,0.0,51,0.00,,---,0.00,0.00,VWS V14.00,2013-02-01 01:09:00,
2013-01-31 19:13:00,50.1,37.6,30.16,SW,218,0.0,0.0,62,0.00,,---,0.00,0.00,VWS V14.00,2013-02-01 01:13:00,
2013-01-31 19:17:00,48.7,37.1,30.17,SW,219,0.0,0.0,64,0.00,,---,0.00,0.00,VWS V14.00,2013-02-01 01:17:00,
2013-01-31 19:21:00,48.7,36.3,30.17,SW,219,0.0,0.0,62,0.00,,---,0.00,0.00,VWS V14.00,2013-02-01 01:21:00,
2013-01-31 19:25:00,48.8,34.3,30.17,SW,218,0.0,0.0,57,0.00,,---,0.00,0.00,VWS V14.00,2013-02-01 01:25:00,
2013-01-31 19:29:00,49.5,32.1,30.17,SW,218,0.0,0.0,51,0.00,,---,0.00,0.00,VWS V14.00,2013-02-01 01:29:00,
2013-01-31 19:30:00,49.7,31.3,30.17,SW,219,0.0,0.0,49,0.00,,---,0.00,0.00,VWS V14.00,2013-02-01 01:30:00,
2013-01-31 19:33:00,50.0,30.6,30.17,SW,218,0.0,0.0,47,0.00,,---,0.00,0.00,VWS V14.00,2013-02-01 01:33:00,
2013-01-31 19:37:00,50.4,31.5,30.17,SW,218,0.0,0.0,48,0.00,,---,0.00,0.00,VWS V14.00,2013-02-01 01:37:00,
2013-01-31 19:41:00,50.0,31.6,30.17,SW,218,0.0,0.0,49,0.00,,---,0.00,0.00,VWS V14.00,2013-02-01 01:41:00,
2013-01-31 19:45:00,49.0,31.7,30.18,SW,218,0.0,0.0,51,0.00,,---,0.00,0.00,VWS V14.00,2013-02-01 01:45:00,
2013-01-31 19:50:00,48.7,31.9,30.18,SW,218,0.0,0.0,52,0.00,,---,0.00,0.00,VWS V14.00,2013-02-01 01:50:00,
2013-01-31 19:54:00,48.4,32.1,30.18,SW,218,0.0,0.0,53,0.00,,---,0.00,0.00,VWS V14.00,2013-02-01 01:54:00,
2013-01-31 19:58:00,48.2,31.9,30.18,SW,218,0.0,0.0,53,0.00,,---,0.00,0.00,VWS V14.00,2013-02-01 01:58:00,
2013-01-31 20:00:00,48.1,33.2,30.18,SW,218,0.0,0.0,56,0.00,,---,0.00,0.00,VWS V14.00,2013-02-01 02:00:00,
2013-01-31 20:02:00,47.9,34.3,30.18,SW,218,0.0,0.0,59,0.00,,---,0.00,0.00,VWS V14.00,2013-02-01 02:02:00,
2013-01-31 20:06:00,47.3,36.5,30.18,SW,218,0.0,0.0,66,0.00,,---,0.00,0.00,VWS V14.00,2013-02-01 02:06:00,
2013-01-31 20:10:00,46.6,37.0,30.18,SW,218,0.0,0.0,69,0.00,,---,0.00,0.00,VWS V14.00,2013-02-01 02:10:00,
2013-01-31 20:14:00,46.1,36.1,30.18,SW,219,0.0,0.0,68,0.00,,---,0.00,0.00,VWS V14.00,2013-02-01 02:14:00,
2013-01-31 20:18:00,46.1,35.8,30.18,SW,218,0.0,0.0,67,0.00,,---,0.00,0.00,VWS V14.00,2013-02-01 02:18:00,
2013-01-31 20:22:00,46.5,34.6,30.18,SW,218,0.0,1.0,63,0.00,,---,0.00,0.00,VWS V14.00,2013-02-01 02:22:00,
2013-01-31 20:26:00,46.9,35.4,30.18,SW,218,0.0,1.0,64,0.00,,---,0.00,0.00,VWS V14.00,2013-02-01 02:26:00,
2013-01-31 20:30:00,47.3,35.0,30.20,SW,218,0.0,1.0,62,0.00,,---,0.00,0.00,VWS V14.00,2013-02-01 02:30:00,
2013-01-31 20:34:00,47.3,36.2,30.20,SW,218,0.0,0.0,65,0.00,,---,0.00,0.00,VWS V14.00,2013-02-01 02:34:00,
2013-01-31 20:38:00,47.3,34.5,30.20,SW,218,0.0,0.0,61,0.00,,---,0.00,0.00,VWS V14.00,2013-02-01 02:38:00,
2013-01-31 20:42:00,47.1,37.1,30.20,SW,219,0.0,0.0,68,0.00,,---,0.00,0.00,VWS V14.00,2013-02-01 02:42:00,
2013-01-31 20:46:00,46.4,37.9,30.20,SW,218,0.0,0.0,72,0.00,,---,0.00,0.00,VWS V14.00,2013-02-01 02:46:00,
2013-01-31 20:50:00,46.3,35.2,30.20,SW,218,0.0,0.0,65,0.00,,---,0.00,0.00,VWS V14.00,2013-02-01 02:50:00,
2013-01-31 20:54:00,47.1,32.7,30.20,SW,219,0.0,0.0,57,0.00,,---,0.00,0.00,VWS V14.00,2013-02-01 02:54:00,
2013-01-31 20:58:00,48.4,29.1,30.20,SW,219,0.0,0.0,47,0.00,,---,0.00,0.00,VWS V14.00,2013-02-01 02:58:00,
2013-01-31 21:00:00,48.8,29.0,30.21,SW,219,0.0,0.0,46,0.00,,---,0.00,0.00,VWS V14.00,2013-02-01 03:00:00,
2013-01-31 21:02:00,49.3,29.4,30.21,SW,219,0.0,0.0,46,0.00,,---,0.00,0.00,VWS V14.00,2013-02-01 03:02:00,
2013-01-31 21:06:00,49.4,29.0,30.21,SW,219,0.0,0.0,45,0.00,,---,0.00,0.00,VWS V14.00,2013-02-01 03:06:00,
2013-01-31 21:10:00,48.7,28.3,30.21,SW,219,0.0,0.0,45,0.00,,---,0.00,0.00,VWS V14.00,2013-02-01 03:10:00,
2013-01-31 21:15:00,48.9,28.0,30.22,SW,219,0.0,0.0,44,0.00,,---,0.00,0.00,VWS V14.00,2013-02-01 03:15:00,
2013-01-31 21:18:00,48.2,30.0,30.22,West,268,0.0,2.0,49,0.00,,---,0.00,0.00,VWS V14.00,2013-02-01 03:18:00,
2013-01-31 21:23:00,47.9,29.2,30.22,West,268,1.0,2.0,48,0.00,,---,0.00,0.00,VWS V14.00,2013-02-01 03:23:00,
2013-01-31 21:27:00,48.1,30.4,30.22,West,268,2.0,3.0,50,0.00,,---,0.00,0.00,VWS V14.00,2013-02-01 03:27:00,
2013-01-31 21:30:00,48.1,31.8,30.23,NW,314,5.0,5.0,53,0.00,,---,0.00,0.00,VWS V14.00,2013-02-01 03:30:00,
2013-01-31 21:31:00,48.1,31.8,30.23,NW,314,2.0,5.0,53,0.00,,---,0.00,0.00,VWS V14.00,2013-02-01 03:31:00,
2013-01-31 21:35:00,49.0,33.5,30.23,NW,309,3.0,5.0,55,0.00,,---,0.00,0.00,VWS V14.00,2013-02-01 03:35:00,
2013-01-31 21:39:00,49.8,32.9,30.23,NW,321,2.0,5.0,52,0.00,,---,0.00,0.00,VWS V14.00,2013-02-01 03:39:00,
2013-01-31 21:43:00,50.6,32.2,30.23,WNW,296,2.0,5.0,49,0.00,,---,0.00,0.00,VWS V14.00,2013-02-01 03:43:00,
2013-01-31 21:47:00,50.7,32.2,30.24,WNW,288,3.0,5.0,49,0.00,,---,0.00,0.00,VWS V14.00,2013-02-01 03:47:00,
2013-01-31 21:51:00,50.8,33.3,30.24,North,355,5.0,6.0,51,0.00,,---,0.00,0.00,VWS V14.00,2013-02-01 03:51:00,
2013-01-31 21:55:00,51.1,34.6,30.24,NNW,342,5.0,9.0,53,0.00,,---,0.00,0.00,VWS V14.00,2013-02-01 03:55:00,
2013-01-31 21:59:00,51.0,35.0,30.25,NW,324,7.0,11.0,54,0.00,,---,0.00,0.00,VWS V14.00,2013-02-01 03:59:00,
2013-01-31 22:03:00,50.6,35.0,30.25,NNW,343,11.0,11.0,55,0.00,,---,0.00,0.00,VWS V14.00,2013-02-01 04:03:00,
2013-01-31 22:07:00,50.1,35.5,30.25,North,360,6.0,12.0,57,0.00,,---,0.00,0.00,VWS V14.00,2013-02-01 04:07:00,
2013-01-31 22:11:00,49.5,35.3,30.25,NNE,14,6.0,12.0,58,0.00,,---,0.00,0.00,VWS V14.00,2013-02-01 04:11:00,
2013-01-31 22:15:00,49.1,35.0,30.27,NNW,337,5.0,12.0,58,0.00,,---,0.00,0.00,VWS V14.00,2013-02-01 04:15:00,
2013-01-31 22:19:00,48.8,34.7,30.27,North,355,7.0,12.0,58,0.00,,---,0.00,0.00,VWS V14.00,2013-02-01 04:19:00,
2013-01-31 22:23:00,48.6,34.9,30.27,North,11,4.0,12.0,59,0.00,,---,0.00,0.00,VWS V14.00,2013-02-01 04:23:00,
2013-01-31 22:27:00,48.3,34.7,30.27,North,5,7.0,12.0,59,0.00,,---,0.00,0.00,VWS V14.00,2013-02-01 04:27:00,
2013-01-31 22:30:00,48.2,34.6,30.28,North,11,6.0,12.0,59,0.00,,---,0.00,0.00,VWS V14.00,2013-02-01 04:30:00,
2013-01-31 22:32:00,48.1,34.9,30.28,NNE,18,4.0,6.0,60,0.00,,---,0.00,0.00,VWS V14.00,2013-02-01 04:32:00,
2013-01-31 22:40:00,47.8,34.6,30.28,North,5,5.0,10.0,60,0.00,,---,0.00,0.00,VWS V14.00,2013-02-01 04:40:00,
2013-01-31 22:44:00,47.6,34.0,30.28,North,10,9.0,10.0,59,0.00,,---,0.00,0.00,VWS V14.00,2013-02-01 04:44:00,
2013-01-31 22:48:00,47.3,34.1,30.28,North,9,5.0,12.0,60,0.00,,---,0.00,0.00,VWS V14.00,2013-02-01 04:48:00,
2013-01-31 22:52:00,46.9,34.2,30.28,NNE,12,7.0,12.0,61,0.00,,---,0.00,0.00,VWS V14.00,2013-02-01 04:52:00,
2013-01-31 22:56:00,46.7,34.0,30.28,North,350,5.0,12.0,61,0.00,,---,0.00,0.00,VWS V14.00,2013-02-01 04:56:00,
2013-01-31 23:00:00,46.6,33.9,30.29,NNW,329,6.0,12.0,61,0.00,,---,0.00,0.00,VWS V14.00,2013-02-01 05:00:00,
2013-01-31 23:04:00,46.4,33.3,30.29,NNE,13,5.0,11.0,60,0.00,,---,0.00,0.00,VWS V14.00,2013-02-01 05:04:00,
2013-01-31 23:08:00,46.3,33.6,30.29,North,360,4.0,11.0,61,0.00,,---,0.00,0.00,VWS V14.00,2013-02-01 05:08:00,
2013-01-31 23:12:00,46.0,32.9,30.29,NNE,13,4.0,11.0,60,0.00,,---,0.00,0.00,VWS V14.00,2013-02-01 05:12:00,
2013-01-31 23:16:00,45.8,32.7,30.29,NNE,15,8.0,15.0,60,0.00,,---,0.00,0.00,VWS V14.00,2013-02-01 05:16:00,
2013-01-31 23:20:00,45.7,33.0,30.29,NNE,13,4.0,15.0,61,0.00,,---,0.00,0.00,VWS V14.00,2013-02-01 05:20:00,
2013-01-31 23:24:00,45.5,32.8,30.29,North,355,9.0,15.0,61,0.00,,---,0.00,0.00,VWS V14.00,2013-02-01 05:24:00,
2013-01-31 23:28:00,45.3,32.7,30.29,NNE,26,5.0,15.0,61,0.00,,---,0.00,0.00,VWS V14.00,2013-02-01 05:28:00,
2013-01-31 23:30:00,45.2,32.6,30.30,NE,36,4.0,15.0,61,0.00,,---,0.00,0.00,VWS V14.00,2013-02-01 05:30:00,
2013-01-31 23:33:00,45.2,33.0,30.30,NNE,15,9.0,10.0,62,0.00,,---,0.00,0.00,VWS V14.00,2013-02-01 05:33:00,
2013-01-31 23:37:00,45.1,33.3,30.30,NNE,22,3.0,10.0,63,0.00,,---,0.00,0.00,VWS V14.00,2013-02-01 05:37:00,
2013-01-31 23:41:00,45.0,33.2,30.30,NNE,14,4.0,10.0,63,0.00,,---,0.00,0.00,VWS V14.00,2013-02-01 05:41:00,
2013-01-31 23:45:00,44.8,33.0,30.30,North,360,5.0,10.0,63,0.00,,---,0.00,0.00,VWS V14.00,2013-02-01 05:45:00,
2013-01-31 23:49:00,44.6,32.8,30.30,NNE,15,3.0,10.0,63,0.00,,---,0.00,0.00,VWS V14.00,2013-02-01 05:49:00,
2013-01-31 23:53:00,44.4,32.6,30.30,North,5,6.0,10.0,63,0.00,,---,0.00,0.00,VWS V14.00,2013-02-01 05:53:00,
2013-01-31 23:57:00,44.3,32.9,30.30,North,9,7.0,10.0,64,0.00,,---,0.00,0.00,VWS V14.00,2013-02-01 05:57:00,